Location: Observatoire
(46.1952°N, 5.3391°E)
Time: 04:38:46
(UTC+02:00)

ITAMSAT 1 - Pass Details

Date: 27 April 2024
Orbit: 782 x 796 km, 98.8° (Epoch: 24 May)

Event Time Altitude Azimuth Distance (km) Brightness Sun altitude
Exits shadow 21:46:48 - 159° (SSE) 2,539 9.8 -10.7°
Reaches altitude 10° 21:47:16 10° 158° (SSE) 2,359 9.6 -10.7°
Maximum altitude 21:52:28 78° 73° (ENE) 817 7.7 -11.5°
Drops below altitude 10° 21:57:43 10° 348° (NNW) 2,373 10.9 -12.2°
Sets 22:00:03 0° 347° (NNW) 3,306 11.7 -12.5°
